Location: ????????
(56.1167°N, 38.6333°E)
Time: 08:58:41
(UTC+00:00)

CARTOSAT-1 - Pass Details

Date: 18 November 2025
Orbit: 596 x 597 km, 97.5° (Epoch: 14 December)

Event Time Altitude Azimuth Distance (km) Brightness Sun altitude
Exits shadow 15:45:46 57° 66° (ENE) 707 3.5 -20.8°
Drops below altitude 10° 15:49:52 10° 351° (N) 1,949 6.2 -21.4°
Sets 15:52:05 0° 348° (NNW) 2,856 7.1 -21.7°
